FW0810 Weather Reports


Display with metric or nautical units.
time (UTC)temp
F
wind
direction
speed
MPH
gust
MPH
rain 1hr
in
rain 24hr
in
rain mn
in
humidity
%
barometer
mb
20260905201939 78 349 0.0 0.0 0.00 0.00 0.00 65 1022.7
20260905201434 79 349 0.0 0.0 0.00 0.00 0.00 64 1022.7
20260905200929 80 349 0.0 0.0 0.00 0.00 0.00 63 1022.7
20260905200425 80 349 0.0 0.0 0.00 0.00 0.00 62 1022.5
20260905195925 81 349 0.0 0.0 0.00 0.00 0.00 61 1022.5
20260905195428 81 347 0.0 2.0 0.00 0.00 0.00 61 1022.4
20260905194925 82 348 0.0 3.0 0.00 0.00 0.00 61 1022.2
20260905194425 82 316 0.0 3.0 0.00 0.00 0.00 61 1022.1
20260905193925 82 301 0.0 3.0 0.00 0.00 0.00 60 1021.9
20260905193425 82 341 0.0 3.0 0.00 0.00 0.00 60 1022.0
20260905192926 82 295 0.0 3.0 0.00 0.00 0.00 59 1021.8
20260905192425 83 266 0.0 3.0 0.00 0.00 0.00 59 1021.8
20260905191924 83 308 0.0 4.0 0.00 0.00 0.00 58 1021.8
20260905191422 83 288 0.0 4.0 0.00 0.00 0.00 58 1021.8
20260905190922 83 278 0.0 1.0 0.00 0.00 0.00 57 1021.8
20260905190422 83 278 0.0 1.0 0.00 0.00 0.00 56 1021.7
20260905185919 84 278 0.0 1.0 0.00 0.00 0.00 55 1021.7
20260905185418 84 279 0.0 3.0 0.00 0.00 0.00 55 1021.6
20260905184915 84 278 0.0 3.0 0.00 0.00 0.00 54 1021.5
20260905184413 84 273 0.0 3.0 0.00 0.00 0.00 53 1021.5
20260905183911 85 284 0.0 5.0 0.00 0.00 0.00 53 1021.4
20260905183411 85 281 0.0 5.0 0.00 0.00 0.00 52 1021.2
20260905182913 85 283 0.0 5.0 0.00 0.00 0.00 51 1021.2
20260905181910 85 300 0.0 2.0 0.00 0.00 0.00 49 1021.0
20260905181408 86 309 0.0 1.0 0.00 0.00 0.00 48 1021.0
20260905180905 86 303 0.0 1.0 0.00 0.00 0.00 47 1020.9
20260905175905 87 281 0.0 1.0 0.00 0.00 0.00 46 1020.7
20260905175404 87 281 0.0 3.0 0.00 0.00 0.00 45 1020.7
20260905174903 88 285 1.0 10.0 0.00 0.00 0.00 44 1020.6
20260905174359 88 283 1.0 10.0 0.00 0.00 0.00 43 1020.6
20260905173859 89 290 0.0 4.0 0.00 0.00 0.00 42 1020.5
20260905173400 89 283 0.0 2.0 0.00 0.00 0.00 41 1020.7
20260905172859 89 289 0.0 3.0 0.00 0.00 0.00 40 1020.6
20260905172401 90 287 0.0 4.0 0.00 0.00 0.00 39 1020.5
20260905171857 90 276 0.0 4.0 0.00 0.00 0.00 39 1020.5
20260905171356 91 264 0.0 8.0 0.00 0.00 0.00 40 1020.6
20260905170906 91 285 1.0 8.0 0.00 0.00 0.00 39 1020.6
20260905170356 91 290 2.0 9.0 0.00 0.00 0.00 39 1020.6
20260905165856 92 259 1.0 11.0 0.00 0.00 0.00 40 1020.7
20260905165351 92 293 2.0 11.0 0.00 0.00 0.00 39 1020.7
20260905164849 92 288 2.0 9.0 0.00 0.00 0.00 39 1020.7
20260905164350 93 308 1.0 9.0 0.00 0.00 0.00 40 1020.7
20260905163850 93 297 1.0 6.0 0.00 0.00 0.00 40 1020.7
20260905162848 93 288 1.0 7.0 0.00 0.00 0.00 40 1020.6
20260905161851 94 292 1.0 8.0 0.00 0.00 0.00 40 1020.6
20260905161348 94 293 1.0 9.0 0.00 0.00 0.00 39 1020.4
20260905160347 95 286 0.0 4.0 0.00 0.00 0.00 39 1020.5
20260905155347 95 255 2.0 9.0 0.00 0.00 0.00 38 1020.5
20260905154349 95 255 1.0 9.0 0.00 0.00 0.00 38 1020.4
20260905153843 96 311 0.0 4.0 0.00 0.00 0.00 37 1020.3
20260905153343 96 196 1.0 7.0 0.00 0.00 0.00 37 1020.4
20260905152843 96 286 1.0 10.0 0.00 0.00 0.00 37 1020.3
20260905152343 96 287 1.0 10.0 0.00 0.00 0.00 36 1020.3
20260905151843 96 170 0.0 2.0 0.00 0.00 0.00 36 1020.3
20260905151345 96 125 2.0 11.0 0.00 0.00 0.00 35 1020.2
20260905150843 96 278 3.0 11.0 0.00 0.00 0.00 36 1020.3
20260905150341 96 274 2.0 8.0 0.00 0.00 0.00 35 1020.4
20260905145841 96 283 1.0 6.0 0.00 0.00 0.00 35 1020.3
20260905145343 96 165 1.0 9.0 0.00 0.00 0.00 35 1020.3
20260905143837 96 166 1.0 7.0 0.00 0.00 0.00 35 1020.3
20260905143341 96 269 1.0 7.0 0.00 0.00 0.00 34 1020.4
20260905142845 96 167 1.0 5.0 0.00 0.00 0.00 33 1020.3
20260905142337 96 148 0.0 5.0 0.00 0.00 0.00 34 1020.5
20260905141837 96 283 1.0 7.0 0.00 0.00 0.00 34 1020.6
20260905140838 97 197 2.0 10.0 0.00 0.00 0.00 34 1020.5
20260905140337 97 265 2.0 9.0 0.00 0.00 0.00 33 1020.4
20260905135838 96 264 1.0 8.0 0.00 0.00 0.00 33 1020.4
20260905134832 96 276 1.0 6.0 0.00 0.00 0.00 33 1020.6
20260905134334 96 263 1.0 6.0 0.00 0.00 0.00 34 1020.6
20260905133833 96 267 2.0 10.0 0.00 0.00 0.00 33 1020.8
20260905133333 96 205 2.0 10.0 0.00 0.00 0.00 33 1020.8
20260905132833 96 285 1.0 7.0 0.00 0.00 0.00 33 1020.8
20260905132336 96 275 1.0 10.0 0.00 0.00 0.00 32 1020.8
20260905131835 96 288 1.0 10.0 0.00 0.00 0.00 33 1020.8
20260905131331 96 228 2.0 9.0 0.00 0.00 0.00 33 1020.9
20260905130325 96 278 1.0 9.0 0.00 0.00 0.00 32 1021.1
20260905125825 96 295 1.0 8.0 0.00 0.00 0.00 31 1021.0
20260905125325 96 294 2.0 8.0 0.00 0.00 0.00 31 1021.1
20260905124325 96 207 0.0 6.0 0.00 0.00 0.00 33 1021.2
20260905123825 96 272 1.0 7.0 0.00 0.00 0.00 35 1021.3
20260905123322 96 194 1.0 7.0 0.00 0.00 0.00 34 1021.3
20260905122323 95 273 0.0 5.0 0.00 0.00 0.00 35 1021.4
20260905121823 95 296 0.0 4.0 0.00 0.00 0.00 35 1021.5
20260905121323 94 190 1.0 5.0 0.00 0.00 0.00 37 1021.6
20260905120824 94 275 2.0 8.0 0.00 0.00 0.00 38 1021.6
20260905120322 94 283 2.0 8.0 0.00 0.00 0.00 37 1021.6
20260905115823 95 300 1.0 7.0 0.00 0.00 0.00 37 1021.7
20260905115322 94 281 0.0 5.0 0.00 0.00 0.00 38 1021.7
20260905114816 94 156 1.0 10.0 0.00 0.00 0.00 38 1021.8
20260905113828 94 295 1.0 9.0 0.00 0.00 0.00 38 1021.7
20260905113315 94 294 1.0 9.0 0.00 0.00 0.00 38 1021.8
20260905112815 94 266 1.0 6.0 0.00 0.00 0.00 38 1021.8
20260905112312 94 276 1.0 6.0 0.00 0.00 0.00 38 1021.8
20260905111813 94 284 1.0 7.0 0.00 0.00 0.00 39 1021.9
20260905111312 93 312 1.0 7.0 0.00 0.00 0.00 38 1021.8
20260905110810 93 259 1.0 8.0 0.00 0.00 0.00 38 1021.8
20260905110311 93 284 2.0 8.0 0.00 0.00 0.00 37 1021.9
20260905105810 94 285 1.0 7.0 0.00 0.00 0.00 36 1021.8
20260905105311 94 350 0.0 5.0 0.00 0.00 0.00 36 1021.8
20260905104815 93 201 0.0 3.0 0.00 0.00 0.00 35 1021.8
20260905103807 92 286 2.0 6.0 0.00 0.00 0.00 36 1021.9
20260905102805 92 289 1.0 11.0 0.00 0.00 0.00 37 1021.9
20260905102306 91 296 2.0 8.0 0.00 0.00 0.00 38 1021.9
20260905101807 91 332 2.0 8.0 0.00 0.00 0.00 39 1021.9
20260905101305 91 269 1.0 8.0 0.00 0.00 0.00 39 1022.0
20260905100804 91 293 1.0 7.0 0.00 0.00 0.00 41 1022.0
20260905100305 91 283 2.0 10.0 0.00 0.00 0.00 41 1022.2
20260905095805 91 278 1.0 10.0 0.00 0.00 0.00 39 1022.2
20260905095306 90 239 1.0 9.0 0.00 0.00 0.00 42 1022.2
20260905094804 90 288 0.0 3.0 0.00 0.00 0.00 45 1022.3
20260905094304 89 126 0.0 1.0 0.00 0.00 0.00 46 1022.3
20260905093804 88 127 0.0 4.0 0.00 0.00 0.00 49 1022.3
20260905092805 87 119 0.0 4.0 0.00 0.00 0.00 51 1022.3
20260905092306 86 117 0.0 3.0 0.00 0.00 0.00 52 1022.3
20260905091802 86 118 1.0 3.0 0.00 0.00 0.00 52 1022.2
20260905091302 85 115 0.0 2.0 0.00 0.00 0.00 53 1022.2
20260905090800 85 88 0.0 4.0 0.00 0.00 0.00 53 1022.2
20260905090300 85 85 0.0 4.0 0.00 0.00 0.00 54 1022.2
20260905085758 84 111 0.0 1.0 0.00 0.00 0.00 54 1022.1
20260905085258 84 110 0.0 2.0 0.00 0.00 0.00 54 1022.2
20260905084758 83 110 0.0 5.0 0.00 0.00 0.00 55 1022.2
20260905084252 83 110 0.0 5.0 0.00 0.00 0.00 56 1022.3
20260905083745 82 115 0.0 3.0 0.00 0.00 0.00 56 1022.3
20260905083239 82 112 0.0 2.0 0.00 0.00 0.00 57 1022.2
20260905082736 82 111 0.0 2.0 0.00 0.00 0.00 57 1022.3
20260905082226 81 108 0.0 2.0 0.00 0.00 0.00 60 1022.3
20260905081214 80 139 0.0 2.0 0.00 0.00 0.00 60 1022.4
20260905080713 80 107 0.0 1.0 0.00 0.00 0.00 62 1022.4
20260905075658 78 98 1.0 4.0 0.00 0.00 0.00 62 1022.5
20260905075153 78 108 1.0 4.0 0.00 0.00 0.00 63 1022.6
20260905074138 77 139 0.0 3.0 0.00 0.00 0.00 64 1022.6
20260905073632 77 144 0.0 3.0 0.00 0.00 0.00 65 1022.7
20260905072114 76 141 0.0 3.0 0.00 0.00 0.00 66 1022.6
20260905071608 76 158 0.0 3.0 0.00 0.00 0.00 67 1022.5
20260905070613 75 221 0.0 1.0 0.00 0.00 0.00 69 1022.4
20260905070107 75 221 0.0 0.0 0.00 0.00 0.00 69 1022.3
20260905065559 74 257 0.0 0.0 0.00 0.00 0.00 71 1022.3
20260905064055 73 262 0.0 0.0 0.00 0.00 0.00 72 1022.4
20260905063553 72 262 0.0 0.0 0.00 0.00 0.00 73 1022.4
20260905063050 71 271 0.0 0.0 0.00 0.00 0.00 76 1022.5
20260905062046 68 271 0.0 0.0 0.00 0.00 0.00 80 1022.4
20260905061547 67 271 0.0 0.0 0.00 0.00 0.00 80 1022.5
20260905061046 67 271 0.0 0.0 0.00 0.00 0.00 82 1022.6
20260905060546 66 271 0.0 0.0 0.00 0.00 0.00 82 1022.7
20260905055547 65 270 0.0 0.0 0.00 0.00 0.00 83 1022.6
20260905055046 65 269 0.0 0.0 0.00 0.00 0.00 84 1022.5
20260905054545 64 269 0.0 0.0 0.00 0.00 0.00 85 1022.5
20260905054046 63 269 0.0 0.0 0.00 0.00 0.00 84 1022.6
20260905053542 63 269 0.0 1.0 0.00 0.00 0.00 85 1022.7
20260905051036 62 269 0.0 0.0 0.00 0.00 0.00 86 1022.5
20260905050037 62 269 0.0 0.0 0.00 0.00 0.00 85 1022.4
20260905045536 62 269 0.0 0.0 0.00 0.00 0.00 84 1022.5
20260905045036 62 269 0.0 0.0 0.00 0.00 0.00 85 1022.5
20260905044035 62 269 0.0 0.0 0.00 0.00 0.00 84 1022.4
20260905043533 62 269 0.0 0.0 0.00 0.00 0.00 84 1022.3
20260905043032 63 269 0.0 0.0 0.00 0.00 0.00 84 1022.3
20260905042532 63 269 0.0 0.0 0.00 0.00 0.00 84 1022.2
20260905041533 62 269 0.0 1.0 0.00 0.00 0.00 84 1022.1
20260905041033 62 269 0.0 1.0 0.00 0.00 0.00 84 1022.0
20260905040532 63 269 0.0 0.0 0.00 0.00 0.00 84 1022.0
20260905040028 63 271 0.0 1.0 0.00 0.00 0.00 84 1022.1
20260905035528 63 271 0.0 1.0 0.00 0.00 0.00 84 1022.1
20260905035029 63 271 0.0 0.0 0.00 0.00 0.00 84 1021.8
20260905033033 63 271 0.0 0.0 0.00 0.00 0.00 83 1022.0
20260905032528 64 271 0.0 0.0 0.00 0.00 0.00 83 1021.9
20260905032027 64 271 0.0 0.0 0.00 0.00 0.00 83 1021.8
20260905031521 64 271 0.0 0.0 0.00 0.00 0.00 83 1021.9
20260905031016 64 274 0.0 0.0 0.00 0.00 0.00 82 1021.9
20260905030016 64 274 0.0 0.0 0.00 0.00 0.00 82 1021.9
20260905025457 64 274 0.0 0.0 0.00 0.00 0.00 82 1021.9
20260905024953 64 274 0.0 0.0 0.00 0.00 0.00 82 1022.0
20260905024445 64 274 0.0 0.0 0.00 0.00 0.00 82 1022.0
20260905023432 64 273 0.0 0.0 0.00 0.00 0.00 81 1022.0
20260905022928 65 272 0.0 0.0 0.00 0.00 0.00 81 1022.0
20260905021916 65 269 0.0 0.0 0.00 0.00 0.00 81 1022.1
20260905021411 65 269 0.0 0.0 0.00 0.00 0.00 81 1022.1
20260905020902 65 269 0.0 0.0 0.00 0.00 0.00 81 1022.2
20260905020400 65 269 0.0 0.0 0.00 0.00 0.00 81 1022.2
20260905015852 65 269 0.0 0.0 0.00 0.00 0.00 81 1022.3
20260905015345 65 269 0.0 0.0 0.00 0.00 0.00 81 1022.4
20260905014845 65 269 0.0 4.0 0.00 0.00 0.00 80 1022.3
20260905014341 65 269 0.0 4.0 0.00 0.00 0.00 80 1022.4
20260905013842 65 266 0.0 0.0 0.00 0.00 0.00 79 1022.4
20260905013343 66 264 0.0 4.0 0.00 0.00 0.00 79 1022.3
20260905012839 66 275 0.0 4.0 0.00 0.00 0.00 79 1022.3
20260905012339 66 269 0.0 2.0 0.00 0.00 0.00 78 1022.2
20260905011836 66 264 0.0 0.0 0.00 0.00 0.00 78 1022.3
20260905011333 66 264 0.0 0.0 0.00 0.00 0.00 78 1022.2
20260905010330 67 264 0.0 0.0 0.00 0.00 0.00 78 1022.2
20260905005827 67 264 0.0 0.0 0.00 0.00 0.00 77 1022.3
20260905005330 67 264 0.0 0.0 0.00 0.00 0.00 77 1022.3
20260905004827 67 264 0.0 0.0 0.00 0.00 0.00 77 1022.3
20260905004327 67 264 0.0 0.0 0.00 0.00 0.00 77 1022.4
20260905002825 68 264 0.0 0.0 0.00 0.00 0.00 76 1022.4
20260905002325 68 264 0.0 1.0 0.00 0.00 0.00 77 1022.5
20260905001827 68 264 0.0 2.0 0.00 0.00 0.00 77 1022.5
20260905000822 67 266 0.0 4.0 0.00 0.00 0.00 76 1022.4
20260904235822 68 273 1.0 5.0 0.00 0.00 0.00 75 1022.6
20260904235322 68 264 0.0 5.0 0.00 0.00 0.00 74 1022.7
20260904233315 69 270 0.0 1.0 0.00 0.00 0.00 73 1022.6
20260904232313 69 269 0.0 0.0 0.00 0.00 0.00 73 1022.7
20260904230806 70 274 0.0 2.0 0.00 0.00 0.00 71 1022.8
20260904230318 70 274 0.0 2.0 0.00 0.00 0.00 71 1022.9
20260904225805 71 272 0.0 0.0 0.00 0.00 0.00 70 1023.0
20260904225306 71 272 0.0 0.0 0.00 0.00 0.00 69 1023.0
20260904224301 71 272 0.0 0.0 0.00 0.00 0.00 68 1022.8
20260904223802 72 272 0.0 0.0 0.00 0.00 0.00 68 1022.8
20260904223303 72 271 0.0 0.0 0.00 0.00 0.00 68 1022.8
20260904222801 72 271 0.0 3.0 0.00 0.00 0.00 68 1022.8
20260904222254 72 271 0.0 3.0 0.00 0.00 0.00 68 1022.8
20260904221749 72 273 0.0 1.0 0.00 0.00 0.00 67 1022.9
20260904220740 72 283 0.0 4.0 0.00 0.00 0.00 66 1022.8
20260904220231 73 274 0.0 4.0 0.00 0.00 0.00 65 1022.7
20260904215728 73 269 0.0 0.0 0.00 0.00 0.00 65 1022.8
20260904215218 73 269 0.0 2.0 0.00 0.00 0.00 65 1022.7
20260904214713 73 269 0.0 2.0 0.00 0.00 0.00 65 1022.7
20260904214206 73 271 0.0 0.0 0.00 0.00 0.00 65 1022.7
20260904213700 73 271 0.0 3.0 0.00 0.00 0.00 65 1022.5
20260904213156 74 271 0.0 3.0 0.00 0.00 0.00 64 1022.6
20260904212649 74 269 0.0 2.0 0.00 0.00 0.00 64 1022.5
20260904212145 74 276 0.0 0.0 0.00 0.00 0.00 63 1022.5
20260904211640 74 276 0.0 2.0 0.00 0.00 0.00 63 1022.5
20260904211131 74 278 0.0 2.0 0.00 0.00 0.00 62 1022.5
20260904210640 75 275 0.0 2.0 0.00 0.00 0.00 62 1022.5
20260904210121 75 285 0.0 2.0 0.00 0.00 0.00 61 1022.5
20260904205618 76 276 0.0 0.0 0.00 0.00 0.00 60 1022.5
20260904205118 76 276 0.0 0.0 0.00 0.00 0.00 60 1022.5
20260904204616 76 276 0.0 0.0 0.00 0.00 0.00 59 1022.5
20260904204113 76 276 0.0 0.0 0.00 0.00 0.00 59 1022.5
20260904203113 76 276 0.0 0.0 0.00 0.00 0.00 59 1022.5
20260904202614 76 276 0.0 1.0 0.00 0.00 0.00 59 1022.4